Home   Weather   Fall River   Past weeks

Flag for USA Past Weather in Fall River, Massachusetts, USA — Yesterday and Last 2 Weeks

Now
44 °F

Overcast.


Feels Like: 43 °F
Forecast: 36 / 45 °F
Wind: 3 mph from North

Location: New Bedford Regional Airport

Current Time: Dec 7, 2016 at 1:38:27 pm

Latest Report: Dec 7, 2016 at 12:53 pm


Visibility: 10 mi

Pressure: 29.94 "Hg

Humidity: 82%

Dew Point: 39 °F

Location of Fall RiverLocation

Past Weather in Fall River — Graph

°F

Fall River Temperature Yesterday

Maximum temperature yesterday: 46 °F (at 12:53 pm)
Minimum temperature yesterday: 33 °F (at 6:53 am)
Average temperature yesterday: 39 °F

High & Low Weather Summary for the Past Weeks

 TemperatureHumidityPressure
High61 °F (Nov 29, 10:53 pm)97% (Nov 30, 2:53 am)30.35 "Hg (Nov 30, 2:53 am)
Low24 °F (Dec 4, 8:53 pm)40% (Nov 23, 1:53 pm)29.42 "Hg (Dec 1, 4:53 am)
Average42 °F73%30.01 "Hg
* Reported Nov 22 11:53 am — Dec 7 11:53 am, Fall River, Weather by CustomWeather, © 2016

Note: Actual official high and low records may vary slightly from our data, if they occured in-between our weather recording intervals... More about our weather records

Advertising

Fall River Weather History for the Previous 24 Hours

Scroll right to see more
 ConditionsComfort  
Time TempWeatherWind HumidityBarometerVisibility
11:53 am
Wed, Dec 7
43 °FLow clouds.3 mph86%29.96 "Hg10 mi
10:53 am42 °FFog.No wind89%29.97 "Hg4 mi
9:53 am41 °FFog.5 mph89%29.98 "Hg4 mi
8:53 am40 °FFog.5 mph93%29.96 "Hg4 mi
7:53 am39 °FLight rain. Fog.3 mph93%29.95 "Hg3 mi
6:53 am38 °FOvercast.No wind93%29.91 "Hg10 mi
5:53 am38 °FLight rain. Fog.5 mph93%29.92 "Hg5 mi
4:53 am39 °FLight rain. Overcast.6 mph86%29.89 "Hg10 mi
3:53 am38 °FLight rain. Mostly cloudy.6 mph90%29.88 "Hg10 mi
3:02 am38 °FLight rain. Mostly cloudy.7 mph86%29.91 "Hg10 mi
1:53 am40 °FLight rain. Mostly cloudy.7 mph80%29.92 "Hg10 mi
12:53 am40 °FLight rain. Overcast.6 mph77%29.92 "Hg10 mi
12:04 am39 °FMostly cloudy.7 mph76%29.93 "Hg10 mi
11:53 pm
Tue, Dec 6
39 °FMostly cloudy.6 mph76%29.95 "Hg10 mi
10:53 pm39 °FMostly cloudy.5 mph76%29.99 "Hg10 mi
9:53 pm39 °FMostly cloudy.5 mph73%29.99 "Hg10 mi
8:53 pm38 °FMostly cloudy.No wind76%30.01 "Hg10 mi
7:53 pm36 °FClear.No wind82%30.00 "Hg10 mi
6:53 pm38 °FClear.No wind73%30.00 "Hg10 mi
5:53 pm39 °FClear.3 mph67%30.01 "Hg10 mi
4:53 pm40 °FClear.5 mph63%30.01 "Hg10 mi
3:53 pm42 °FSunny.8 mph60%30.02 "Hg10 mi
2:53 pm44 °FSunny.5 mph53%30.05 "Hg10 mi
1:53 pm45 °FSunny.5 mph51%30.06 "Hg10 mi
Weather by CustomWeather, © 2016

See weather overviewHow to use our weather pages